Location: Shenandoah County Park
(38.9356°N, 78.4524°W)
Time: 06:31:40
(UTC-04:00)

Explorer 11/Cluster Stage 4 - Pass Details

Date: 28 February 2024
Orbit: 465 x 1220 km, 28.8° (Epoch: 12 April)

Event Time Altitude Azimuth Distance (km) Brightness Sun altitude
Rises 22:18:51 0° 216° (SW) 3,871 - -47.7°
Maximum altitude 22:27:41 21° 155° (SSE) 2,382 - -49.0°
Drops below altitude 10° 22:33:20 10° 111° (ESE) 3,166 - -49.8°
Sets 22:37:01 0° 96° (E) 4,120 - -50.3°
